RH
18 20 25 28 28 22 22 26 24 20 18 18 18 17 18 18 19 19 19 19 19 20 22 23 23 26 31 43 54 50 50 53 61 86 96 98 95 94 86 74 62 47 49 48
19 23 27 28 26 22 24 24 20 18 18 18 17 16 16 16 18 21 20 20 21 22 24 26 28 29 32 48 53 54 58 68 92 100 100 97 95 84 74 66 52 51 51 31
21 23 25 22 26 24 23 22 21 18 20 16 16 16 17 21 24 23 23 24 25 26 27 31 34 34 38 48 56 66 76 95 100 99 98 97 86 75 73 56 54 54 32 11
21 24 23 23 24 25 24 24 23 24 24 25 24 23 23 22 23 26 27 28 30 32 35 39 38 38 44 56 69 79 95 100 98 100 100 97 91 84 67 55 55 37 12 13
19 21 20 23 23 25 25 26 27 22 20 18 18 20 23 25 29 31 33 36 38 43 43 37 39 50 66 68 79 90 96 100 100 100 100 99 98 84 60 58 44 14 12 14
15 15 15 17 17 18 16 15 16 16 18 21 25 31 38 42 44 45 46 50 50 41 37 43 61 68 65 74 86 91 100 100 100 100 100 100 97 76 59 51 19 10 14 16
16 11 7 9 8 7 8 9 8 10 12 16 25 31 37 40 47 52 52 42 39 44 60 73 70 61 76 96 100 100 100 100 100 100 100 99 83 60 59 30 10 13 15 19
8 7 8 7 6 7 7 7 8 10 12 14 20 30 38 42 38 36 39 46 62 72 66 60 68 95 92 96 100 100 100 100 100 100 100 96 72 63 39 13 11 16 18 24
10 10 9 8 7 8 7 8 10 13 17 20 23 26 30 32 34 44 60 65 57 47 64 92 96 90 99 100 100 100 100 100 100 100 97 74 65 47 18 10 16 17 22 31
10 10 8 8 9 8 9 12 16 19 24 28 30 32 38 49 57 56 52 46 52 82 89 91 92 95 92 97 100 100 100 100 100 97 82 71 56 18 11 15 18 21 28 37
8 8 8 12 12 14 18 19 22 25 30 35 44 53 56 48 45 52 69 72 77 89 94 94 97 100 100 100 100 100 100 96 91 87 74 60 24 11 14 20 21 28 36 43
8 12 14 19 20 22 25 29 36 41 44 46 47 45 47 68 82 83 86 89 95 97 96 100 100 100 100 100 100 100 91 88 93 81 62 23 12 13 21 22 26 37 48 55
17 22 25 32 41 43 43 44 40 36 42 65 78 83 84 86 93 94 92 95 93 96 99 100 100 100 100 100 100 100 98 95 81 65 22 14 15 20 26 25 35 45 56 66
33 44 48 47 41 36 33 37 46 78 85 87 88 94 96 94 96 95 99 100 100 100 100 100 100 100 100 100 100 100 93 83 58 19 15 17 22 29 27 34 46 60 67 68
50 45 39 36 34 52 73 73 75 85 91 89 88 85 92 98 99 100 100 100 100 100 100 100 100 100 100 100 98 89 75 35 16 16 19 24 29 32 29 45 63 79 82 81
38 32 30 42 68 84 89 93 94 87 82 82 86 92 92 92 95 100 100 100 100 100 100 100 100 100 100 94 78 50 17 17 17 20 26 28 34 35 33 53 73 88 91 89
35 46 66 87 97 98 95 90 84 84 87 88 85 79 79 77 83 91 100 100 100 100 100 100 97 86 52 25 13 15 21 22 23 28 30 32 37 37 34 61 72 90 93 89
93 100 100 98 97 95 90 87 86 83 73 58 55 57 67 81 92 100 100 100 100 99 89 76 46 21 13 14 20 28 31 32 30 30 32 38 40 37 34 60 78 85 88 87
100 99 98 94 92 90 83 73 63 52 50 63 79 99 100 100 100 100 95 81 60 41 24 19 17 16 18 22 29 32 34 36 37 35 40 42 41 36 32 57 78 92 97 98
96 93 89 82 75 61 44 32 34 40 57 72 87 95 90 67 47 34 27 24 18 15 13 13 17 22 27 36 38 35 35 39 38 39 46 44 40 32 30 56 71 82 92 100
86 79 68 52 30 15 8 12 49 75 74 69 52 39 32 31 30 24 19 17 15 15 17 20 25 28 29 34 40 36 32 37 43 47 47 44 39 29 31 59 74 79 90 100
52 29 15 8 7 8 28 41 44 52 51 45 36 32 33 30 28 23 20 17 16 19 23 26 33 38 38 37 36 36 34 36 45 45 42 42 39 31 38 67 80 85 98 100
7 6 7 8 9 11 24 42 51 54 52 44 32 33 36 32 26 23 18 17 18 25 30 34 37 38 39 40 40 39 39 42 42 38 36 37 37 36 52 82 94 97 100 100
7 8 9 11 17 34 51 58 60 54 50 37 32 33 33 33 31 24 19 20 28 30 28 26 26 26 27 29 30 31 31 31 30 28 28 30 34 46 72 98 100 100 100 100
9 10 14 24 38 56 62 61 60 57 52 50 47 44 41 38 31 20 20 27 28 24 25 27 26 26 26 27 27 27 27 27 26 25 26 28 40 64 96 100 100 100 100 100
13 22 32 44 62 67 66 70 68 60 54 52 49 47 44 33 20 21 26 25 25 31 32 27 24 24 25 25 24 24 23 24 25 26 27 30 45 77 100 100 100 100 100 100
31 41 62 73 76 82 83 77 64 55 53 53 50 42 28 20 22 21 20 27 31 26 21 21 22 22 22 22 23 23 23 24 29 34 37 40 55 93 100 100 100 100 100 100
Wind_Speed
17 18 18 19 22 22 21 21 22 20 23 25 33 33 32 34 37 39 42 44 45 46 47 49 50 52 53 53 55 56 58 60 61 63 64 65 69 73 76 78 81 81 85 89
18 18 19 21 22 22 23 23 25 28 27 31 36 39 40 41 43 45 47 47 48 48 50 52 53 54 54 55 56 58 60 61 62 62 64 68 72 75 76 79 80 83 87 89
18 20 23 23 21 24 26 27 30 33 33 37 40 45 46 47 49 49 49 49 49 50 52 54 55 55 55 56 57 59 60 61 61 64 68 71 75 75 79 80 82 86 87 79
17 22 25 20 23 26 30 32 36 38 41 43 46 49 50 51 51 49 48 49 49 51 54 56 55 55 55 57 58 59 60 61 65 68 71 75 76 77 80 81 85 86 79 70
21 21 24 25 26 28 33 35 39 42 45 47 48 49 49 49 49 49 49 50 51 53 55 54 53 53 56 58 59 59 61 64 70 71 74 76 77 80 82 83 84 80 71 67
20 23 24 24 26 29 33 36 38 40 42 44 46 47 49 48 49 50 50 52 53 53 53 52 53 56 58 59 60 61 63 71 74 75 77 77 78 81 83 83 80 72 67 64
21 23 24 26 28 30 33 38 40 42 43 44 45 47 48 49 49 49 50 50 50 50 51 53 56 57 58 59 60 63 71 75 76 77 78 77 78 84 84 82 75 67 63 57
23 26 30 31 35 37 39 41 42 44 45 45 44 44 45 47 48 47 46 47 48 51 53 55 56 56 57 58 61 69 72 75 79 80 80 79 81 83 80 76 68 63 58 49
27 30 35 39 41 42 43 43 43 43 44 45 45 45 46 46 46 46 47 51 53 55 54 54 56 58 58 59 69 72 74 76 79 81 80 80 83 80 77 70 62 58 52 42
34 36 40 42 43 43 43 42 42 42 43 44 45 45 45 46 48 51 52 54 55 56 57 58 59 61 64 66 70 72 75 79 81 82 82 81 79 75 72 62 57 53 45 38
37 39 41 41 41 42 42 43 43 43 43 43 44 46 48 50 52 53 54 54 55 57 59 60 62 60 66 72 77 77 77 82 84 83 82 79 75 70 63 56 51 46 40 35
40 39 40 39 39 39 40 40 42 43 44 45 47 49 49 50 52 52 53 55 57 60 61 64 63 62 68 74 76 73 79 82 82 83 78 72 69 64 56 51 46 40 36 32
39 38 38 38 40 40 41 42 43 45 45 46 46 47 49 49 51 53 56 58 60 59 59 65 66 75 77 74 67 71 76 81 82 77 70 65 62 57 52 46 40 36 32 29
37 38 40 41 42 42 44 45 44 44 45 47 48 48 50 53 56 59 60 59 62 60 64 69 76 73 66 65 71 77 81 81 76 69 64 59 55 52 48 40 36 32 29 26
38 40 41 42 43 45 45 45 45 47 48 49 51 54 56 57 58 60 57 54 59 65 70 72 67 66 67 74 80 81 80 72 66 62 59 56 52 48 44 36 32 29 27 26
40 42 43 44 45 45 45 46 47 49 51 54 56 57 58 60 59 55 56 59 61 64 70 70 70 74 80 81 80 75 68 63 61 60 55 53 51 46 41 34 30 28 26 25
42 43 44 45 44 44 46 48 51 53 55 57 58 60 60 60 60 58 61 65 66 68 72 73 77 80 76 73 71 68 62 59 57 56 55 53 49 45 40 33 31 30 30 29
42 42 41 43 46 49 50 53 55 57 60 60 58 57 57 56 54 59 62 65 70 73 76 77 73 71 69 68 64 61 59 59 57 56 55 51 48 44 39 32 31 30 31 32
41 44 46 49 50 52 56 59 60 59 56 54 54 52 52 55 58 61 65 67 67 67 67 69 69 67 65 63 62 61 61 58 56 55 52 49 47 44 38 32 31 31 32 32
46 49 52 54 57 57 57 56 55 54 52 52 51 52 53 54 55 54 56 60 65 69 70 68 67 65 64 63 61 59 58 56 53 52 49 47 46 43 36 31 31 31 32 32
52 54 54 54 53 53 54 54 54 53 55 53 50 49 50 52 56 59 63 66 69 71 69 67 65 64 64 61 60 58 56 53 51 48 46 44 43 40 34 31 31 31 31 31
51 49 49 49 51 53 53 55 52 50 50 50 52 53 55 58 62 65 71 76 74 71 68 66 63 61 61 60 58 57 54 49 48 46 44 42 40 37 34 32 32 32 33 32
45 47 50 52 53 55 54 52 52 52 53 55 55 58 61 65 70 73 76 78 74 68 64 60 58 57 56 53 51 49 47 47 46 45 43 41 39 36 34 33 34 35 35 35
48 51 53 54 53 52 52 53 53 54 56 57 60 64 68 69 74 82 84 76 69 67 65 63 60 58 56 54 52 51 49 48 46 44 42 39 37 36 35 35 35 36 36 36
53 54 54 53 52 51 53 53 55 56 59 62 65 69 73 78 82 85 79 71 69 66 62 60 57 55 54 53 51 49 47 45 43 41 40 38 36 35 37 36 35 35 34 35
53 52 52 51 51 52 54 56 58 60 63 65 69 74 78 83 87 80 73 69 64 60 58 55 52 50 48 47 46 45 44 42 41 40 39 37 36 35 36 35 34 33 33 36
51 50 49 50 51 54 57 60 62 65 68 72 75 80 85 85 78 73 67 62 60 59 56 52 50 48 47 47 47 47 46 44 41 40 39 38 37 36 35 35 35 34 36 39
Wind_Direction
229 229 230 230 230 236 246 254 262 268 273 285 287 291 294 294 295 296 297 298 299 299 297 298 299 299 299 302 304 304 304 305 306 308 308 308 309 311 314 315 317 317 319 319
232 237 239 237 239 248 256 263 270 274 279 280 287 291 293 294 296 297 298 298 298 297 297 299 300 300 299 302 304 304 306 306 307 307 308 310 313 316 316 318 318 320 320 319
232 244 246 244 251 257 261 267 274 278 282 284 285 289 292 294 295 296 297 297 296 296 297 299 300 301 300 302 304 306 305 306 307 308 309 312 315 317 319 321 321 321 319 318
243 250 255 258 253 260 266 270 275 279 282 284 287 289 291 292 294 296 295 295 296 297 298 300 301 301 301 305 306 305 305 308 308 308 310 313 315 317 322 322 322 320 319 319
251 254 263 266 266 267 270 272 276 279 281 285 287 289 291 293 293 294 295 296 297 297 299 300 302 303 305 305 305 306 308 306 306 308 310 313 316 320 323 322 321 321 319 320
263 267 270 273 273 273 274 277 277 281 283 285 287 288 289 291 292 294 296 296 298 299 301 304 305 305 305 307 307 309 305 303 305 306 311 313 319 322 323 322 322 320 319 319
270 274 280 281 281 281 282 285 288 288 289 288 288 290 291 292 294 296 297 299 301 302 304 304 304 306 308 309 307 300 298 304 302 305 310 317 321 323 324 323 321 318 319 318
281 286 286 288 287 286 290 291 291 290 291 292 293 293 294 295 296 299 300 300 300 301 302 305 306 306 306 306 301 297 303 301 300 307 315 320 323 323 323 322 319 318 318 316
285 284 285 287 291 296 295 294 293 294 295 296 296 296 298 299 301 302 302 302 302 302 305 304 306 309 305 293 298 301 298 299 305 312 319 322 322 321 323 320 317 318 317 314
284 284 289 292 293 293 292 293 294 295 294 295 296 299 300 301 302 302 302 302 302 304 307 308 308 304 301 300 297 295 298 306 314 318 320 320 320 321 320 318 318 318 315 312
287 287 289 288 288 290 292 293 293 293 294 296 297 298 300 301 301 301 300 301 302 304 304 303 304 305 294 295 297 299 307 314 315 318 318 319 320 320 319 317 318 316 313 310
287 287 287 286 287 290 291 291 292 294 296 297 299 299 299 299 299 300 302 303 304 303 303 301 294 293 294 295 294 302 310 311 314 316 317 319 319 319 318 318 317 314 312 309
287 288 289 291 291 291 292 294 295 295 296 297 297 298 299 301 301 301 303 301 301 301 299 291 287 291 292 293 301 307 309 313 315 315 317 318 318 317 317 317 315 312 311 306
285 287 288 289 290 292 294 295 295 296 297 299 299 300 301 302 302 302 302 301 296 292 294 292 288 290 296 300 304 309 314 313 314 315 316 317 317 317 317 314 313 311 310 305
283 285 287 289 291 292 293 293 295 298 300 302 302 303 301 301 300 300 299 294 290 290 290 288 290 294 298 303 310 313 312 312 314 315 317 317 317 316 315 310 308 308 311 311
284 285 287 290 293 294 296 297 299 301 301 301 300 299 299 300 299 295 289 288 291 288 287 288 291 297 305 309 310 310 310 311 312 315 314 316 315 314 311 304 301 300 305 309
285 287 289 291 292 293 296 298 299 299 299 300 300 300 298 297 294 292 287 282 280 283 287 295 303 308 309 308 307 309 309 310 313 313 314 313 312 312 308 297 296 294 295 299
286 288 289 292 296 298 298 298 298 298 299 300 299 298 298 297 295 290 286 284 288 298 304 304 306 305 305 306 307 308 309 310 310 310 312 310 309 309 305 292 290 294 296 297
289 292 294 295 296 295 295 297 300 302 302 304 305 302 295 292 290 291 293 298 301 302 304 306 306 307 306 306 306 307 308 308 308 308 308 307 307 307 303 289 285 287 292 295
290 292 293 296 299 301 303 304 305 305 305 303 300 298 299 302 304 305 307 311 312 310 310 308 307 307 306 305 305 306 307 307 307 306 306 305 305 304 298 287 283 284 288 291
295 299 301 302 304 306 306 307 307 305 305 307 307 305 304 307 311 311 312 314 313 311 309 307 305 304 303 302 301 303 304 304 304 304 303 302 303 302 295 285 284 283 284 287
299 300 303 305 307 307 306 305 307 307 306 306 305 306 309 312 314 313 314 314 313 310 307 306 305 304 303 302 300 300 300 300 301 302 302 301 301 298 292 286 284 282 281 283
300 303 305 306 306 305 305 305 305 305 303 304 304 307 309 310 312 313 314 315 313 310 308 307 306 305 306 305 304 302 301 299 300 300 299 299 297 295 289 284 282 282 281 281
301 302 303 304 304 302 302 302 303 303 304 304 304 305 307 309 312 313 316 315 312 310 308 307 305 304 303 302 301 300 300 299 298 297 296 294 291 288 285 282 281 281 281 282
299 301 301 300 299 298 298 298 300 301 302 303 304 305 308 309 310 313 313 311 310 309 307 306 304 301 300 299 299 298 298 298 297 296 293 290 286 283 280 279 279 279 281 283
298 298 297 297 295 294 295 297 299 301 303 305 306 307 308 309 311 312 311 310 309 308 308 308 307 304 302 300 299 299 298 297 296 294 292 288 284 279 276 278 278 279 281 283
296 296 294 292 292 295 298 300 302 305 306 307 307 308 309 310 310 310 310 310 310 310 309 307 306 304 302 300 298 296 295 294 293 291 289 286 282 278 273 275 278 279 278 282